WA2GTM Weather Reports


time (UTC)temp
F
wind
direction
speed
knots
gust
knots
rain 1hr
in
rain 24hr
in
rain mn
in
humidity
%
barometer
mb
20260505124607 49 50 0.0 1.7 0.00 0.00 0.00 62 1010.5
20260505124056 49 0 0.0 0.0 0.00 0.00 0.00 64 1010.4
20260505123600 48 0 0.0 0.0 0.00 0.00 0.00 65 1010.5
20260505123112 47 0 0.0 0.0 0.00 0.00 0.00 67 1010.5
20260505122558 46 0 0.0 0.0 0.00 0.00 0.00 69 1010.6
20260505122058 45 0 0.0 0.0 0.00 0.00 0.00 70 1010.8
20260505121557 45 0 0.0 0.9 0.00 0.00 0.00 72 1010.8
20260505121058 44 0 0.0 1.7 0.00 0.00 0.00 73 1010.8
20260505120556 44 0 0.0 1.7 0.00 0.00 0.00 74 1010.7
20260505120057 44 50 0.0 1.7 0.00 0.00 0.00 74 1010.7
20260505115555 44 0 0.0 1.7 0.00 0.00 0.00 73 1010.7
20260505115055 44 0 0.0 0.9 0.00 0.00 0.00 73 1010.7
20260505114603 44 0 0.0 0.9 0.00 0.00 0.00 73 1010.6
20260505114058 44 0 0.0 1.7 0.00 0.00 0.00 73 1010.6
20260505113600 44 0 0.0 1.7 0.00 0.00 0.00 73 1010.4
20260505113059 44 0 0.0 0.0 0.00 0.00 0.00 72 1010.4
20260505112558 44 0 0.0 0.0 0.00 0.00 0.00 71 1010.4
20260505112059 44 0 0.0 0.0 0.00 0.00 0.00 71 1010.7
20260505111602 44 0 0.0 0.0 0.00 0.00 0.00 70 1010.4
20260505111058 45 0 0.0 0.0 0.00 0.00 0.00 69 1010.3
20260505110557 45 0 0.0 0.0 0.00 0.00 0.00 66 1010.2
20260505102055 46 0 0.0 0.0 0.00 0.00 0.00 58 1009.5
20260505101559 46 0 0.0 0.0 0.00 0.00 0.00 58 1009.6
20260505101101 46 0 0.0 0.0 0.00 0.00 0.00 57 1009.6
20260505100556 46 0 0.0 0.0 0.00 0.00 0.00 57 1009.6
20260505100103 47 0 0.0 1.7 0.00 0.00 0.00 56 1009.4
20260505095557 47 0 0.0 1.7 0.00 0.00 0.00 56 1009.4
20260505095059 47 0 0.0 2.6 0.00 0.00 0.00 55 1009.5
20260505094608 47 50 0.9 2.6 0.00 0.00 0.00 55 1009.3
20260505094058 47 50 0.9 2.6 0.00 0.00 0.00 54 1009.3
20260505093600 47 0 0.0 2.6 0.00 0.00 0.00 54 1009.5
20260505093057 47 0 0.0 3.5 0.00 0.00 0.00 54 1009.4
20260505092601 47 50 0.9 3.5 0.00 0.00 0.00 54 1009.2
20260505092058 48 50 0.9 3.5 0.00 0.00 0.00 54 1008.9
20260505091557 48 49 0.9 3.5 0.00 0.00 0.00 54 1008.7
20260505091055 48 49 0.9 4.3 0.00 0.00 0.00 55 1008.6
20260505090556 48 46 0.9 4.3 0.00 0.00 0.00 55 1008.6
20260505090108 48 26 1.7 5.2 0.00 0.00 0.00 56 1008.5
20260505085556 48 26 1.7 5.2 0.00 0.00 0.00 56 1008.1
20260505085057 48 26 2.6 5.2 0.00 0.00 0.00 57 1008.0
20260505084558 48 37 0.0 3.5 0.00 0.00 0.00 59 1008.0
20260505084056 48 30 0.9 3.5 0.00 0.00 0.00 59 1007.9
20260505083558 49 30 0.9 3.5 0.00 0.00 0.00 60 1007.8
20260505083109 49 31 1.7 3.5 0.00 0.00 0.00 61 1007.6
20260505082557 49 30 1.7 3.5 0.00 0.00 0.00 61 1007.7
20260505082057 49 31 0.9 1.7 0.00 0.00 0.00 62 1007.6
20260505081558 49 31 0.9 2.6 0.00 0.00 0.00 62 1007.6
20260505081057 49 31 0.0 3.5 0.00 0.00 0.00 61 1008.0
20260505080557 49 31 0.9 3.5 0.00 0.00 0.00 61 1008.0
20260505080059 50 32 0.9 2.6 0.00 0.00 0.00 61 1008.0
20260505075557 50 32 0.9 2.6 0.00 0.00 0.00 59 1007.7
20260505075055 50 32 0.9 3.5 0.00 0.00 0.00 58 1007.6
20260505074555 50 32 0.9 3.5 0.00 0.00 0.00 59 1007.3
20260505074056 50 0 0.9 3.5 0.00 0.00 0.00 58 1007.3
20260505073555 50 32 0.9 3.5 0.00 0.00 0.00 59 1007.3
20260505073102 50 0 0.0 3.5 0.00 0.00 0.00 60 1007.5
20260505072557 50 0 1.7 3.5 0.00 0.00 0.00 59 1007.3
20260505072056 50 13 0.0 2.6 0.00 0.00 0.00 59 1008.1
20260505071558 51 13 0.0 2.6 0.00 0.00 0.00 59 1008.5
20260505071057 51 13 0.9 2.6 0.00 0.00 0.00 58 1008.9
20260505070556 51 13 0.9 2.6 0.00 0.00 0.00 57 1008.8
20260505070059 51 13 0.0 1.7 0.00 0.00 0.00 56 1008.4
20260505065556 51 0 0.0 3.5 0.00 0.00 0.00 55 1008.1
20260505065055 51 0 0.9 3.5 0.00 0.00 0.00 55 1008.1
20260505064556 51 0 0.9 5.2 0.00 0.00 0.00 55 1008.4
20260505064055 51 352 0.9 5.2 0.00 0.00 0.00 55 1008.5
20260505063555 51 326 2.6 5.2 0.00 0.00 0.00 56 1008.9
20260505063100 51 17 1.7 7.0 0.00 0.00 0.00 55 1008.3
20260505062556 51 29 2.6 7.0 0.00 0.00 0.00 57 1007.8
20260505062056 51 27 2.6 7.0 0.00 0.00 0.00 58 1007.8
20260505061605 51 21 2.6 4.3 0.00 0.00 0.00 59 1008.1
20260505061056 51 13 1.7 4.3 0.00 0.00 0.00 59 1008.5
20260505060557 51 13 0.9 4.3 0.00 0.00 0.00 60 1008.6
20260505055556 51 0 0.9 3.5 0.00 0.00 0.00 58 1007.7
20260505055100 51 22 1.7 4.3 0.00 0.00 0.00 57 1008.6
20260505054557 51 22 1.7 4.3 0.00 0.00 0.00 56 1008.5
20260505054055 51 24 2.6 4.3 0.00 0.00 0.00 55 1008.2
20260505053555 51 23 2.6 4.3 0.00 0.00 0.00 56 1008.1
20260505053111 50 20 1.7 4.3 0.00 0.00 0.00 58 1007.9
20260505052559 50 9 1.7 4.3 0.00 0.00 0.00 59 1007.9
20260505052059 50 9 0.9 7.0 0.00 0.00 0.00 59 1008.1
20260505051602 50 22 2.6 7.8 0.00 0.00 0.00 59 1008.0
20260505051056 50 360 4.3 7.8 0.00 0.00 0.00 60 1007.5
20260505050556 50 19 3.5 9.6 0.00 0.00 0.00 59 1007.6
20260505050129 51 23 4.3 9.6 0.00 0.00 0.00 58 1007.5
20260505041611 51 48 5.2 15.6 0.00 0.00 0.00 58 1007.1
20260505041057 52 39 7.8 17.4 0.00 0.00 0.00 56 1007.2
20260505040559 53 19 7.0 17.4 0.00 0.00 0.00 54 1007.3
20260505040108 53 338 7.8 14.8 0.00 0.00 0.00 51 1007.7
20260505035602 53 15 7.0 14.8 0.00 0.00 0.00 52 1007.8
20260505035056 53 21 6.1 14.8 0.00 0.00 0.00 55 1007.9
20260505034605 52 360 4.3 11.3 0.00 0.00 0.00 59 1007.8
20260505034055 53 324 4.3 11.3 0.00 0.00 0.00 58 1007.9
20260505033556 53 9 4.3 12.2 0.00 0.00 0.00 55 1007.9
20260505033055 54 9 5.2 12.2 0.00 0.00 0.00 53 1007.8
20260505032555 54 26 5.2 20.0 0.00 0.00 0.00 52 1007.7
20260505032100 55 10 7.8 20.0 0.00 0.00 0.00 48 1007.0
20260505031601 55 355 7.8 14.8 0.00 0.00 0.00 45 1006.8
20260505031056 55 344 7.0 12.2 0.00 0.00 0.00 46 1006.6
20260505030556 55 329 5.2 11.3 0.00 0.00 0.00 46 1007.0
20260505030056 55 350 4.3 8.7 0.00 0.00 0.00 46 1006.8
20260505025555 56 335 4.3 8.7 0.00 0.00 0.00 45 1006.8
20260505025055 56 17 4.3 13.9 0.00 0.00 0.00 45 1006.5
20260505024555 56 13 5.2 13.9 0.00 0.00 0.00 44 1006.4
20260505024055 56 342 6.1 13.0 0.00 0.00 0.00 43 1006.3
20260505023555 56 30 6.1 13.9 0.00 0.00 0.00 43 1006.1
20260505023056 56 350 5.2 13.9 0.00 0.00 0.00 44 1006.4
20260505022555 56 24 7.0 14.8 0.00 0.00 0.00 44 1006.5
20260505022055 57 10 7.0 17.4 0.00 0.00 0.00 43 1006.5
20260505021555 57 13 8.7 20.9 0.00 0.00 0.00 43 1006.6
20260505021056 57 350 7.8 20.9 0.00 0.00 0.00 42 1006.5
20260505020556 58 5 7.8 18.2 0.00 0.00 0.00 42 1006.5
20260505020057 58 5 7.8 18.2 0.00 0.00 0.00 42 1006.2
20260505015556 58 23 7.0 15.6 0.00 0.00 0.00 41 1006.3
20260505015056 58 24 6.1 12.2 0.00 0.00 0.00 41 1006.3
20260505014606 58 316 5.2 15.6 0.00 0.00 0.00 41 1006.2
20260505014056 58 11 6.1 19.1 0.00 0.00 0.00 40 1006.0
20260505013555 58 11 5.2 19.1 0.00 0.00 0.00 40 1005.8
20260505013055 59 323 6.1 15.6 0.00 0.00 0.00 40 1005.6
20260505012556 59 12 6.1 15.6 0.00 0.00 0.00 39 1005.6
20260505012056 59 10 8.7 15.6 0.00 0.00 0.00 39 1005.5
20260505011604 60 5 8.7 15.6 0.00 0.00 0.00 38 1005.5
20260505011055 60 28 7.0 17.4 0.00 0.00 0.00 37 1005.4
20260505010554 61 23 7.0 17.4 0.00 0.00 0.00 37 1005.2
20260505010057 61 5 7.8 19.1 0.00 0.00 0.00 37 1005.0
20260505005554 61 19 9.6 19.1 0.00 0.00 0.00 37 1004.5
20260505005057 62 345 7.8 17.4 0.00 0.00 0.00 36 1004.5
20260505004555 62 34 10.4 18.2 0.00 0.00 0.00 35 1004.5
20260505004057 63 321 8.7 18.2 0.00 0.00 0.00 34 1004.3
20260505003559 64 331 9.6 18.2 0.00 0.00 0.00 33 1004.0
20260505003055 65 345 8.7 18.2 0.00 0.00 0.00 32 1004.0
20260505002556 65 319 7.0 15.6 0.00 0.00 0.00 32 1003.9
20260505002057 66 16 6.1 20.0 0.00 0.00 0.00 31 1003.8
20260505001623 66 10 7.8 20.0 0.00 0.00 0.00 31 1003.7
20260505001059 67 17 9.6 20.0 0.00 0.00 0.00 30 1003.7
20260505000556 68 11 7.0 17.4 0.00 0.00 0.00 30 1003.7
20260505000133 69 310 7.0 16.5 0.00 0.00 0.00 29 1003.5
20260504235559 69 351 7.8 16.5 0.00 0.00 0.00 29 1003.5
20260504235056 69 24 7.8 16.5 0.00 0.00 0.00 29 1003.5
20260504234612 70 20 7.8 19.1 0.00 0.00 0.00 29 1003.3
20260504234054 70 11 7.8 19.1 0.00 0.00 0.00 29 1003.3
20260504233556 70 19 7.8 18.2 0.00 0.00 0.00 29 1003.2
20260504233106 71 15 6.1 16.5 0.00 0.00 0.00 29 1003.2
20260504232555 71 327 8.7 19.1 0.00 0.00 0.00 29 1003.2
20260504232055 72 15 7.0 19.1 0.00 0.00 0.00 29 1003.2
20260504231556 72 355 7.8 17.4 0.00 0.00 0.00 29 1003.2
20260504231055 72 32 7.8 15.6 0.00 0.00 0.00 28 1003.2
20260504230557 73 21 7.8 18.2 0.00 0.00 0.00 28 1003.1
20260504230055 73 22 7.8 18.2 0.00 0.00 0.00 28 1003.0
20260504225556 74 29 7.8 20.0 0.00 0.00 0.00 29 1002.9
20260504225055 74 34 7.8 20.0 0.00 0.00 0.00 28 1002.8
20260504224610 74 5 8.7 17.4 0.00 0.00 0.00 27 1002.7
20260504224056 75 16 7.8 13.9 0.00 0.00 0.00 27 1002.6
20260504223556 75 19 6.1 14.8 0.00 0.00 0.00 28 1002.5
20260504223102 75 319 6.1 15.6 0.00 0.00 0.00 27 1002.4
20260504222556 75 13 5.2 15.6 0.00 0.00 0.00 27 1002.4
20260504222056 75 352 7.8 15.6 0.00 0.00 0.00 27 1002.3
20260504221557 75 344 7.0 15.6 0.00 0.00 0.00 26 1002.1
20260504221055 75 11 5.2 16.5 0.00 0.00 0.00 27 1002.1
20260504220558 75 355 7.0 16.5 0.00 0.00 0.00 26 1001.9
20260504220100 76 24 4.3 15.6 0.00 0.00 0.00 26 1001.9
20260504215555 76 30 7.0 15.6 0.00 0.00 0.00 27 1001.8
20260504215100 76 20 7.0 15.6 0.00 0.00 0.00 26 1001.7
20260504214555 76 17 7.0 14.8 0.00 0.00 0.00 26 1001.7
20260504214056 77 32 6.1 14.8 0.00 0.00 0.00 26 1001.7
20260504213556 77 329 7.0 15.6 0.00 0.00 0.00 27 1001.7
20260504213125 77 326 7.0 15.6 0.00 0.00 0.00 27 1001.7
20260504212556 77 19 4.3 14.8 0.00 0.00 0.00 27 1001.6
20260504212056 77 32 6.1 14.8 0.00 0.00 0.00 27 1001.6
20260504211605 78 34 5.2 13.0 0.00 0.00 0.00 27 1001.5
20260504211055 78 360 4.3 13.0 0.00 0.00 0.00 28 1001.5
20260504210557 78 27 4.3 13.9 0.00 0.00 0.00 29 1001.4
20260504210059 77 5 5.2 15.6 0.00 0.00 0.00 29 1001.4
20260504205559 78 49 6.1 15.6 0.00 0.00 0.00 29 1001.4
20260504205056 78 355 6.1 13.9 0.00 0.00 0.00 30 1001.3
20260504204557 78 29 7.0 14.8 0.00 0.00 0.00 29 1001.2
20260504204054 79 5 5.2 14.8 0.00 0.00 0.00 31 1001.3
20260504203559 79 25 7.0 14.8 0.00 0.00 0.00 32 1001.1
20260504203119 79 38 5.2 13.9 0.00 0.00 0.00 32 1001.1
20260504202557 79 301 7.8 13.9 0.00 0.00 0.00 33 1001.0
20260504202055 79 5 3.5 13.9 0.00 0.00 0.00 34 1001.1
20260504201554 79 332 7.0 17.4 0.00 0.00 0.00 33 1001.1
20260504201057 78 311 7.8 17.4 0.00 0.00 0.00 33 1001.1
20260504200556 79 36 8.7 16.5 0.00 0.00 0.00 33 1001.1
20260504200057 79 318 7.8 16.5 0.00 0.00 0.00 32 1001.0
20260504195601 79 345 6.1 16.5 0.00 0.00 0.00 33 1001.1
20260504195059 79 292 7.8 14.8 0.00 0.00 0.00 33 1001.1
20260504194606 79 17 7.8 17.4 0.00 0.00 0.00 31 1000.8
20260504194056 80 314 7.8 17.4 0.00 0.00 0.00 31 1000.8
20260504193557 80 315 7.8 17.4 0.00 0.00 0.00 31 1000.7
20260504193109 81 26 5.2 13.0 0.00 0.00 0.00 30 1000.7
20260504192555 80 315 7.8 16.5 0.00 0.00 0.00 28 1000.6
20260504192055 80 297 8.7 20.0 0.00 0.00 0.00 28 1000.6
20260504191556 80 11 10.4 20.0 0.00 0.00 0.00 28 1000.5
20260504191056 80 309 8.7 15.6 0.00 0.00 0.00 29 1000.5
20260504190559 80 295 7.8 15.6 0.00 0.00 0.00 28 1000.4
20260504190114 80 306 7.0 14.8 0.00 0.00 0.00 29 1000.6
20260504185555 79 263 7.8 18.2 0.00 0.00 0.00 29 1000.6
20260504185057 79 5 7.8 18.2 0.00 0.00 0.00 27 1000.6
20260504184605 79 317 7.8 14.8 0.00 0.00 0.00 28 1000.6
20260504184056 80 288 7.0 14.8 0.00 0.00 0.00 28 1000.6
20260504183559 80 295 7.0 13.9 0.00 0.00 0.00 29 1000.7
20260504183056 80 274 7.8 13.9 0.00 0.00 0.00 29 1000.6
20260504182559 80 305 7.0 13.0 0.00 0.00 0.00 29 1000.6
20260504182055 79 277 4.3 15.6 0.00 0.00 0.00 29 1000.6
20260504181554 79 301 8.7 16.5 0.00 0.00 0.00 27 1000.7
20260504181056 80 311 5.2 18.2 0.00 0.00 0.00 30 1000.8
20260504180558 79 313 9.6 18.2 0.00 0.00 0.00 31 1000.8
20260504180056 79 239 7.8 15.6 0.00 0.00 0.00 29 1000.7
20260504175600 79 317 8.7 16.5 0.00 0.00 0.00 30 1000.9
20260504175059 78 294 9.6 17.4 0.00 0.00 0.00 30 1000.8
20260504174617 78 267 7.8 24.3 0.00 0.00 0.00 31 1000.8
20260504174053 78 292 13.0 24.3 0.00 0.00 0.00 31 1000.8
20260504173555 78 299 8.7 15.6 0.00 0.00 0.00 31 1000.8
20260504173120 78 281 9.6 22.6 0.00 0.00 0.00 31 1000.7
20260504172555 78 295 10.4 22.6 0.00 0.00 0.00 32 1000.7
20260504172101 78 291 7.8 18.2 0.00 0.00 0.00 32 1000.7
20260504171558 78 348 7.0 20.0 0.00 0.00 0.00 31 1000.5
20260504171056 78 298 8.7 20.0 0.00 0.00 0.00 31 1000.5
20260504170557 78 309 9.6 22.6 0.00 0.00 0.00 32 1000.5
20260504160105 77 286 6.1 15.6 0.00 0.00 0.00 33 1000.5
20260504151056 71 234 6.1 12.2 0.00 0.00 0.00 46 1001.0
20260504150559 71 265 6.1 12.2 0.00 0.00 0.00 46 1000.9
20260504141057 61 215 1.7 4.3 0.00 0.00 0.00 57 1001.4
20260504140557 61 0 1.7 4.3 0.00 0.00 0.00 57 1001.4
20260504140109 60 215 1.7 4.3 0.00 0.00 0.00 58 1001.6